Location: Dammartin
(48.9032°N, 1.6195°E)
Time: 13:59:37
(UTC+00:00)

Cosmos 2219 Rocket - Pass Details

Date: 03 February 2023
Orbit: 826 x 848 km, 71.0° (Epoch: 29 March)

Event Time Altitude Azimuth Distance (km) Brightness Sun altitude
Rises 18:04:37 0° 161° (SSE) 3,352 5.2 -11.9°
Reaches altitude 10° 18:07:39 10° 144° (SE) 2,425 4.3 -12.4°
Maximum altitude 18:11:31 20° 100° (E) 1,850 3.4 -13.0°
Enters shadow 18:12:39 18° 84° (E) 1,910 3.4 -13.2°
